Погода в Луте

Великобритания     53°22′01″N   0°00′27″E
темп.,
°C
ветер,
м/с
пор.,
м/с
влажн.,
%
обл.,
%
осадки,
мм/ч
давл.,
гПа
погр.,
м
10 апреля, сб
сб1001:00+3всв348885 0.3 1015122
04:00+1с229113 0.0 101512
07:00+1ссв239175 0.1 101657
10:00+6всв446197 0.1 10161153
13:00+7всв554639 0.1 10161491
16:00+7всв66485 0.0 10151344
19:00+4всв47624 0.0 1015488
22:00+1св35713 0.0 101675
11 апреля, вс
вс1101:000с34805 0.0 101751
04:00−1ссз36855 0.0 1017106
07:00−1сз38846 0.0 1018176
10:00+5с576233 0.0 10191281
13:00+6ссв7759100 0.9 10201602
16:00+6ссв775199 0.3 10211529
19:00+4св2465100 0.3 1023113
22:00+1сз2395100 0.5 1025111
12 апреля, пн
пн1201:000зсз2399100 1.6 1025106
04:000зсз3495100 0.2 1026219
07:00−1з1195100 0.2 102618
10:00+4зсз347798 0.0 1028577
13:00+6ссз33645 0.4 10281123
16:00+7св335830 0.6 10291341
19:00+4всв34695 0.6 103087
22:000св01805 0.0 103210
13 апреля, вт
вт1301:00−1зюз11805 0.0 103310
04:00−1зюз11795 0.0 103310
07:000зюз11755 0.0 103411
10:00+6юз2359100 0.0 1034580
13:00+9юз3350100 0.0 10331710
16:00+9юз335189 0.1 10321498
19:00+7юз116691 0.2 103211
22:00+3юз227933 0.0 103213
14 апреля, ср
ср1401:00+1з22876 0.0 103230
04:00+1зсз22875 0.0 103221
07:00+2ссз248749 0.0 103368
10:00+8ссв3362100 0.0 1033785
13:00+8св3359100 0.0 10341041
16:00+8св456145 0.0 1034987
19:00+5св35745 0.0 1034359
22:00+1ссв22915 0.0 103626